User: anonymous   Login
Location: Griffin Ranch
(33.6186°N, 110.6622°W)
Time: 13:14:39
(UTC-07:00)
Language:

Cosmos 1812 - Orbit

View from above orbital plane
View from above orbital plane
View from above satellite
View from above satellite

Ground track
Ground track

The orbit data is extracted from the following two-line orbital elements,

1 17295U 87003A   14353.97925052  .00007730  00000-0  46514-3 0  4969
2 17295 082.5180 318.6130 0004547 049.6374 010.3899 15.10692373521325
Epoch (UTC): 19 December 2014 23:30:07
Eccentricity: 0.0004547
inclination: 82.5180°
perigee height: 531 km
apogee height: 537 km
right ascension of ascending node: 318.6130°
argument of perigee: 49.6374°
revolutions per day: 15.10692373
mean anomaly at epoch: 10.3899°
orbit number at epoch: 52132

The dashed part of the orbit path shows where the satellite is in the earth's shadow,  

DLR